Volver al catálogo

FENGYUN 1C DEB

ActivoSSO
NORAD 33740·DEBRIS·🇨🇳 China

Lanzado May 10, 1999 desde Taiyuan Satellite Launch Center

Loading…

Próximos Pases (próximas 24 horas)

TLE

ActualizadoSource: Space-Track

Época: Sep 14, 2026, 06:48 UTC

1 33740U 99025DJD 26257.28372859  .00000091  00000-0  72164-4 0  9992
2 33740  98.6817 266.6843 0002539  91.3484 268.7979 14.12452350940368

Sigue FENGYUN 1C DEB en tiempo real con AllMySat

Download on the App Store